DW6352 Weather Reports


time (UTC)temp
C
wind
direction
speed
KPH
gust
KPH
rain 1hr
cm
rain 24hr
cm
rain mn
cm
humidity
%
barometer
mb
20260502130107 3 238 3.2 11.3 0.00 0.00 0.00 75 1018.2
20260502123054 0 244 3.2 8.0 0.00 0.00 0.00 86 1018.1
20260502121539 0 255 1.6 8.0 0.00 0.00 0.00 86 1018.1
20260502114532 -2 171 1.6 3.2 0.00 0.00 0.00 85 1018.0
20260502113035 -2 171 1.6 6.4 0.00 0.00 0.00 84 1018.0
20260502111534 -2 244 3.2 6.4 0.00 0.00 0.00 83 1018.0
20260502110028 -2 244 3.2 4.8 0.00 0.00 0.00 83 1018.0
20260502104522 -2 244 1.6 4.8 0.00 0.00 0.00 81 1017.8
20260502103022 -2 244 3.2 4.8 0.00 0.00 0.00 81 1017.8
20260502101520 -2 244 1.6 4.8 0.00 0.00 0.00 81 1017.8
20260502091514 -1 244 0.0 3.2 0.00 0.00 0.00 79 1017.7
20260502070055 0 244 1.6 3.2 0.00 0.00 0.00 74 1018.1
20260502064553 0 244 0.0 6.4 0.00 0.00 0.00 73 1018.0
20260502063114 0 244 0.0 3.2 0.00 0.00 0.00 72 1018.2
20260502061553 0 244 1.6 6.4 0.00 0.00 0.00 72 1018.1
20260502060048 0 256 1.6 4.8 0.00 0.00 0.00 71 1018.0
20260502054548 0 256 1.6 6.4 0.00 0.00 0.00 71 1018.0
20260502053054 1 250 1.6 6.4 0.00 0.00 0.00 70 1018.1
20260502051543 1 315 3.2 4.8 0.00 0.00 0.00 69 1018.1
20260502050039 1 315 1.6 4.8 0.00 0.00 0.00 68 1018.1
20260502044536 1 315 1.6 4.8 0.00 0.00 0.00 67 1018.1
20260502043039 2 315 1.6 4.8 0.00 0.00 0.00 66 1018.1
20260502041533 2 315 3.2 4.8 0.00 0.00 0.00 64 1018.0
20260502040033 2 315 1.6 3.2 0.00 0.00 0.00 63 1018.0
20260502034531 3 315 1.6 3.2 0.00 0.00 0.00 61 1018.0
20260502033030 3 315 0.0 3.2 0.00 0.00 0.00 60 1018.0
20260502031531 4 315 1.6 3.2 0.00 0.00 0.00 57 1018.1
20260502030030 5 315 1.6 4.8 0.00 0.00 0.00 53 1018.1
20260502024531 6 315 0.0 3.2 0.00 0.00 0.00 47 1018.1
20260502023034 7 315 0.0 4.8 0.00 0.00 0.00 42 1018.0
20260502021533 7 315 1.6 3.2 0.00 0.00 0.00 39 1017.9
20260502020028 8 315 0.0 3.2 0.00 0.00 0.00 37 1017.8
20260502014527 9 315 3.2 6.4 0.00 0.00 0.00 34 1017.7
20260502013027 10 309 3.2 11.3 0.00 0.00 0.00 33 1017.5
20260502011527 10 307 4.8 12.9 0.00 0.00 0.00 31 1017.5
20260502010026 10 330 4.8 16.1 0.00 0.00 0.00 30 1017.4
20260502004526 10 306 4.8 14.5 0.00 0.00 0.00 30 1017.2
20260502003025 11 327 6.4 22.5 0.00 0.00 0.00 29 1017.3
20260502001526 11 15 11.3 20.9 0.00 0.00 0.00 28 1017.3
20260502000024 11 328 6.4 17.7 0.00 0.00 0.00 30 1017.4
20260501234525 11 332 8.0 20.9 0.00 0.00 0.00 29 1017.3
20260501233023 11 18 8.0 16.1 0.00 0.00 0.00 29 1017.4
20260501231523 12 342 11.3 17.7 0.00 0.00 0.00 30 1017.4
20260501230022 12 59 1.6 12.9 0.00 0.00 0.00 32 1017.4
20260501224522 11 324 4.8 14.5 0.00 0.00 0.00 29 1017.4
20260501223021 11 338 3.2 12.9 0.00 0.00 0.00 29 1017.5
20260501221520 10 13 1.6 14.5 0.00 0.00 0.00 31 1017.6
20260501220020 11 317 11.3 17.7 0.00 0.00 0.00 32 1017.6
20260501214518 11 309 12.9 20.9 0.00 0.00 0.00 31 1017.7
20260501213018 11 314 4.8 20.9 0.00 0.00 0.00 30 1017.7
20260501211518 12 11 6.4 19.3 0.00 0.00 0.00 33 1017.7
20260501210021 11 344 3.2 17.7 0.00 0.00 0.00 34 1017.8
20260501204514 11 288 11.3 24.1 0.00 0.00 0.00 32 1017.9
20260501203013 11 11 3.2 19.3 0.00 0.00 0.00 33 1018.1
20260501201512 10 311 8.0 25.7 0.00 0.00 0.00 35 1018.3
20260501200013 11 44 9.7 22.5 0.00 0.00 0.00 36 1018.3
20260501194510 11 306 12.9 25.7 0.00 0.00 0.00 37 1018.3
20260501193023 9 342 6.4 17.7 0.00 0.00 0.00 37 1018.4
20260501191508 10 306 6.4 22.5 0.00 0.00 0.00 36 1018.4
20260501190006 10 349 4.8 14.5 0.00 0.00 0.00 37 1018.5
20260501184507 10 336 6.4 16.1 0.00 0.00 0.00 37 1018.4
20260501183005 10 32 4.8 19.3 0.00 0.00 0.00 39 1018.5
20260501181503 8 329 14.5 22.5 0.00 0.00 0.00 38 1018.7
20260501180002 9 51 1.6 16.1 0.00 0.00 0.00 48 1018.7
20260501174501 8 298 8.0 14.5 0.00 0.00 0.00 39 1018.8
20260501173001 9 25 8.0 25.7 0.00 0.00 0.00 38 1018.8
20260501171558 9 24 14.5 27.4 0.00 0.00 0.00 40 1018.9
20260501170056 8 325 8.0 29.0 0.00 0.00 0.00 44 1019.1
20260501164555 8 317 8.0 20.9 0.00 0.00 0.00 44 1019.2
20260501163054 7 332 9.7 22.5 0.00 0.00 0.00 42 1019.2
20260501161554 8 17 6.4 19.3 0.00 0.00 0.00 42 1019.2
20260501160050 7 11 16.1 24.1 0.00 0.00 0.00 45 1019.3
20260501154600 7 33 4.8 17.7 0.00 0.00 0.00 45 1019.3
20260501153047 7 36 6.4 16.1 0.00 0.00 0.00 47 1019.4
20260501151542 6 11 4.8 20.9 0.00 0.00 0.00 46 1019.3
20260501150037 6 342 4.8 20.9 0.00 0.00 0.00 50 1019.3
20260501144535 6 35 11.3 22.5 0.00 0.00 0.00 48 1019.4
20260501143030 6 57 6.4 17.7 0.00 0.00 0.00 48 1019.4